When you browse on this site, cookies collect data to enhance your experience and personalize the content and advertising you see.
Visit our Privacy Policy to learn more. By continuing to use the site, you agree to this use of cookies and data.
  • In Hungary
  • List of Countries
  • For 7 days
  • Water Temperature
  • Weather Map
  • News
  • Weather Widgets
  • user-avatar
    Login

    Hourly Weather Bir al-Maksur

    Today, 24 August, Saturday

    Time Temperature Precipitation Wind Pressure Humidity
    00:00 +25°C° 0 mm 2 mps 739 mmHg 81%
    01:00 +25°C° 0 mm 2 mps 739 mmHg 82%
    02:00 +25°C° 0 mm 2 mps 739 mmHg 84%
    03:00 +24°C° 0 mm 1 mps 740 mmHg 85%
    04:00 +24°C° 0 mm 1 mps 740 mmHg 86%
    05:00 +24°C° 0 mm 1 mps 740 mmHg 87%
    06:00 +26°C° 0 mm 1 mps 740 mmHg 76%
    07:00 +28°C° 0 mm 1 mps 740 mmHg 66%
    08:00 +31°C° 0 mm 1 mps 740 mmHg 56%
    09:00 +34°C° 0 mm 2 mps 740 mmHg 49%
    10:00 +36°C° 0 mm 3 mps 741 mmHg 43%
    11:00 +37°C° 0 mm 4 mps 741 mmHg 37%
    12:00 +37°C° 0 mm 5 mps 740 mmHg 38%
    13:00 +38°C° 0 mm 6 mps 740 mmHg 39%
    14:00 +38°C° 0 mm 7 mps 740 mmHg 40%
    15:00 +36°C° 0 mm 6 mps 740 mmHg 43%
    16:00 +35°C° 0 mm 6 mps 740 mmHg 47%
    17:00 +33°C° 0 mm 5 mps 740 mmHg 51%
    18:00 +30°C° 0 mm 4 mps 740 mmHg 60%
    19:00 +28°C° 0 mm 3 mps 740 mmHg 69%
    20:00 +26°C° 0 mm 2 mps 740 mmHg 78%
    21:00 +26°C° 0 mm 2 mps 740 mmHg 78%
    22:00 +26°C° 0 mm 2 mps 740 mmHg 79%
    23:00 +25°C° 0 mm 1 mps 740 mmHg 80%

    Tomorrow, 25 August, Sunday

    Time Temperature Precipitation Wind Pressure Humidity
    00:00 +25°C° 0 mm 1 mps 740 mmHg 82%
    01:00 +25°C° 0 mm 1 mps 740 mmHg 83%
    02:00 +25°C° 0 mm 1 mps 740 mmHg 84%
    03:00 +24°C° 0 mm 1 mps 740 mmHg 84%
    04:00 +24°C° 0 mm 1 mps 740 mmHg 85%
    05:00 +24°C° 0 mm 1 mps 740 mmHg 86%
    06:00 +26°C° 0 mm 1 mps 740 mmHg 76%
    07:00 +28°C° 0 mm 1 mps 741 mmHg 67%
    08:00 +30°C° 0 mm 2 mps 741 mmHg 58%
    09:00 +32°C° 0 mm 2 mps 741 mmHg 52%
    10:00 +35°C° 0 mm 3 mps 741 mmHg 46%
    11:00 +37°C° 0 mm 4 mps 741 mmHg 40%
    12:00 +37°C° 0 mm 5 mps 741 mmHg 40%
    13:00 +37°C° 0 mm 5 mps 741 mmHg 40%
    14:00 +36°C° 0 mm 6 mps 741 mmHg 39%
    15:00 +35°C° 0 mm 6 mps 740 mmHg 43%
    16:00 +34°C° 0 mm 5 mps 740 mmHg 47%
    17:00 +33°C° 0 mm 5 mps 740 mmHg 52%
    18:00 +30°C° 0 mm 4 mps 740 mmHg 62%
    19:00 +28°C° 0 mm 3 mps 740 mmHg 72%
    20:00 +26°C° 0 mm 2 mps 741 mmHg 81%
    21:00 +25°C° 0 mm 2 mps 741 mmHg 82%
    22:00 +25°C° 0 mm 1 mps 740 mmHg 82%
    23:00 +25°C° 0 mm 1 mps 740 mmHg 82%

    Day after tomorrow, 26 August, Monday

    Time Temperature Precipitation Wind Pressure Humidity
    00:00 +24°C° 0 mm 1 mps 740 mmHg 81%
    01:00 +24°C° 0 mm 1 mps 740 mmHg 81%
    02:00 +24°C° 0 mm 1 mps 740 mmHg 81%
    03:00 +24°C° 0 mm 1 mps 740 mmHg 82%
    04:00 +24°C° 0 mm 1 mps 740 mmHg 83%
    05:00 +24°C° 0 mm 1 mps 740 mmHg 85%
    06:00 +26°C° 0 mm 1 mps 741 mmHg 75%
    07:00 +28°C° 0 mm 1 mps 741 mmHg 66%
    08:00 +30°C° 0 mm 2 mps 741 mmHg 57%
    09:00 +32°C° 0 mm 2 mps 741 mmHg 51%
    10:00 +34°C° 0 mm 3 mps 741 mmHg 45%
    11:00 +36°C° 0 mm 4 mps 741 mmHg 39%
    12:00 +36°C° 0 mm 4 mps 741 mmHg 38%
    13:00 +36°C° 0 mm 5 mps 741 mmHg 38%
    14:00 +36°C° 0 mm 6 mps 741 mmHg 38%
    15:00 +35°C° 0 mm 6 mps 740 mmHg 41%
    16:00 +34°C° 0 mm 5 mps 740 mmHg 45%
    17:00 +33°C° 0 mm 5 mps 740 mmHg 48%
    18:00 +30°C° 0 mm 4 mps 740 mmHg 58%
    19:00 +28°C° 0 mm 3 mps 741 mmHg 68%
    20:00 +26°C° 0 mm 3 mps 741 mmHg 77%
    21:00 +25°C° 0 mm 2 mps 741 mmHg 80%
    22:00 +24°C° 0 mm 2 mps 741 mmHg 82%
    23:00 +24°C° 0 mm 1 mps 741 mmHg 84%

    27 August, Tuesday

    Time Temperature Precipitation Wind Pressure Humidity
    00:00 +24°C° 0 mm 1 mps 741 mmHg 84%
    01:00 +23°C° 0 mm 1 mps 740 mmHg 84%
    02:00 +23°C° 0 mm 1 mps 740 mmHg 83%
    03:00 +23°C° 0 mm 1 mps 740 mmHg 84%
    04:00 +21°C° 0 mm 0 mps 740 mmHg 84%
    05:00 +21°C° 0 mm 0 mps 740 mmHg 85%
    06:00 +25°C° 0 mm 1 mps 741 mmHg 76%
    07:00 +27°C° 0 mm 1 mps 741 mmHg 67%
    08:00 +29°C° 0 mm 2 mps 741 mmHg 58%
    09:00 +31°C° 0 mm 2 mps 742 mmHg 52%
    10:00 +34°C° 0 mm 3 mps 742 mmHg 47%
    11:00 +35°C° 0 mm 3 mps 742 mmHg 41%
    12:00 +35°C° 0 mm 4 mps 741 mmHg 41%
    13:00 +35°C° 0 mm 5 mps 741 mmHg 41%
    14:00 +35°C° 0 mm 6 mps 741 mmHg 41%
    15:00 +34°C° 0 mm 6 mps 740 mmHg 45%
    16:00 +33°C° 0 mm 5 mps 740 mmHg 49%
    17:00 +32°C° 0 mm 5 mps 740 mmHg 53%
    18:00 +29°C° 0 mm 4 mps 740 mmHg 62%
    19:00 +27°C° 0 mm 3 mps 741 mmHg 71%
    20:00 +25°C° 0 mm 2 mps 741 mmHg 80%
    21:00 +25°C° 0 mm 2 mps 741 mmHg 81%
    22:00 +24°C° 0 mm 1 mps 741 mmHg 83%
    23:00 +24°C° 0 mm 1 mps 741 mmHg 85%

    28 August, Wednesday

    Time Temperature Precipitation Wind Pressure Humidity
    00:00 +23°C° 0 mm 1 mps 741 mmHg 86%
    01:00 +23°C° 0 mm 1 mps 740 mmHg 86%
    02:00 +23°C° 0 mm 1 mps 740 mmHg 87%
    03:00 +23°C° 0 mm 1 mps 740 mmHg 88%
    04:00 +23°C° 0 mm 1 mps 740 mmHg 89%
    05:00 +23°C° 0 mm 1 mps 740 mmHg 90%
    06:00 +25°C° 0 mm 1 mps 740 mmHg 82%
    07:00 +27°C° 0 mm 1 mps 741 mmHg 74%
    08:00 +29°C° 0 mm 1 mps 741 mmHg 65%
    09:00 +30°C° 0 mm 2 mps 741 mmHg 59%
    10:00 +33°C° 0 mm 3 mps 741 mmHg 52%
    11:00 +35°C° 0 mm 3 mps 741 mmHg 46%
    12:00 +35°C° 0 mm 4 mps 740 mmHg 46%
    13:00 +35°C° 0 mm 5 mps 740 mmHg 47%
    14:00 +35°C° 0 mm 6 mps 740 mmHg 48%
    15:00 +34°C° 0 mm 6 mps 739 mmHg 53%
    16:00 +33°C° 0 mm 5 mps 739 mmHg 58%
    17:00 +30°C° 0 mm 5 mps 739 mmHg 63%
    18:00 +29°C° 0 mm 4 mps 739 mmHg 71%
    19:00 +27°C° 0 mm 3 mps 739 mmHg 80%
    20:00 +26°C° 0 mm 2 mps 740 mmHg 89%
    21:00 +25°C° 0 mm 2 mps 740 mmHg 90%
    22:00 +25°C° 0 mm 1 mps 740 mmHg 90%
    23:00 +25°C° 0 mm 1 mps 740 mmHg 91%

    29 August, Thursday

    Time Temperature Precipitation Wind Pressure Humidity
    00:00 +25°C° 0 mm 1 mps 740 mmHg 92%
    01:00 +25°C° 0 mm 1 mps 740 mmHg 92%
    02:00 +24°C° 0 mm 1 mps 740 mmHg 92%
    03:00 +24°C° 0 mm 1 mps 740 mmHg 93%
    04:00 +24°C° 0 mm 1 mps 740 mmHg 93%
    05:00 +24°C° 0 mm 1 mps 740 mmHg 93%
    06:00 +26°C° 0 mm 1 mps 740 mmHg 85%
    07:00 +27°C° 0 mm 2 mps 740 mmHg 77%
    08:00 +29°C° 0 mm 2 mps 740 mmHg 69%
    09:00 +31°C° 0 mm 3 mps 740 mmHg 61%
    10:00 +34°C° 0 mm 3 mps 740 mmHg 53%
    11:00 +36°C° 0 mm 4 mps 740 mmHg 45%
    12:00 +35°C° 0 mm 5 mps 740 mmHg 46%
    13:00 +35°C° 0 mm 5 mps 740 mmHg 47%
    14:00 +35°C° 0 mm 6 mps 739 mmHg 48%
    15:00 +34°C° 0 mm 6 mps 739 mmHg 54%
    16:00 +33°C° 0 mm 5 mps 739 mmHg 59%
    17:00 +30°C° 0 mm 5 mps 739 mmHg 65%
    18:00 +29°C° 0 mm 4 mps 739 mmHg 73%
    19:00 +27°C° 0 mm 3 mps 740 mmHg 81%
    20:00 +26°C° 0 mm 2 mps 740 mmHg 89%
    21:00 +25°C° 0 mm 2 mps 740 mmHg 90%
    22:00 +25°C° 0 mm 2 mps 740 mmHg 90%
    23:00 +25°C° 0 mm 1 mps 739 mmHg 91%
    Show more